EW2734 Weather Reports


time (UTC)temp
F
wind
direction
speed
knots
gust
knots
rain 1hr
in
rain 24hr
in
rain mn
in
humidity
%
barometer
mb
20260505071515 61 79 0.0 7.0 0.00 0.00 0.00 52 998.3
20260505070004 62 60 0.9 8.7 0.00 0.00 0.00 54 998.2
20260505064501 63 95 0.0 7.8 0.00 0.00 0.00 55 998.1
20260505063100 63 318 0.9 8.7 0.00 0.00 0.00 55 997.9
20260505061619 64 39 0.0 7.8 0.00 0.00 0.00 56 997.9
20260505060054 65 2 0.9 12.2 0.00 0.00 0.00 56 997.7
20260505054603 65 20 0.0 11.3 0.00 0.00 0.00 61 997.5
20260505053047 65 13 0.0 0.0 0.00 0.00 0.00 60 997.6
20260505051545 65 87 0.0 0.0 0.00 0.00 0.00 59 997.1
20260505041539 66 57 0.0 0.9 0.00 0.00 0.00 56 997.0
20260505040040 66 270 0.0 0.0 0.00 0.00 0.00 54 997.0
20260505034538 67 61 0.0 0.0 0.00 0.00 0.00 53 997.1
20260505033047 68 79 0.0 1.7 0.00 0.00 0.00 52 996.9
20260505031538 68 115 0.0 0.9 0.00 0.00 0.00 51 996.9
20260505030037 69 77 0.0 0.9 0.00 0.00 0.00 51 996.6
20260505024601 70 50 0.0 0.9 0.00 0.00 0.00 47 996.4
20260505023039 71 51 0.0 5.2 0.00 0.00 0.00 45 996.4
20260505021547 72 125 0.0 1.7 0.00 0.00 0.00 44 996.4
20260505020041 73 49 0.0 4.3 0.00 0.00 0.00 41 996.4
20260505014535 76 84 0.0 1.7 0.00 0.00 0.00 33 996.1
20260505013034 76 72 0.0 0.9 0.00 0.00 0.00 32 995.8
20260505011547 79 205 0.0 5.2 0.00 0.00 0.00 33 995.9
20260505010033 81 94 0.0 4.3 0.00 0.00 0.00 27 995.8
20260505004541 83 286 0.0 0.0 0.00 0.00 0.00 22 995.7
20260505003030 85 101 0.0 0.0 0.00 0.00 0.00 18 995.9
20260505001514 86 184 0.9 7.0 0.00 0.00 0.00 17 995.9
20260505000014 87 203 2.6 7.0 0.00 0.00 0.00 16 995.8
20260504234517 87 182 0.0 5.2 0.00 0.00 0.00 15 995.9
20260504233011 87 235 0.0 7.8 0.00 0.00 0.00 15 995.9
20260504231510 87 220 1.7 5.2 0.00 0.00 0.00 14 996.0
20260504230010 87 283 2.6 9.6 0.00 0.00 0.00 14 996.2
20260504224510 87 218 1.7 8.7 0.00 0.00 0.00 14 996.1
20260504223007 88 155 0.0 7.8 0.00 0.00 0.00 14 996.3
20260504221504 89 220 3.5 9.6 0.00 0.00 0.00 14 996.5
20260504220136 89 187 3.5 9.6 0.00 0.00 0.00 14 996.8
20260504214501 88 188 5.2 9.6 0.00 0.00 0.00 14 996.8
20260504213126 88 160 0.0 7.0 0.00 0.00 0.00 15 997.1
20260504211556 88 256 0.0 5.2 0.00 0.00 0.00 15 997.4
20260504210100 88 202 6.1 10.4 0.00 0.00 0.00 15 997.5
20260504204603 87 159 0.9 12.2 0.00 0.00 0.00 15 997.6
20260504203050 88 117 0.9 7.0 0.00 0.00 0.00 17 997.8
20260504201548 87 68 0.0 6.1 0.00 0.00 0.00 17 998.0
20260504200047 88 245 0.0 8.7 0.00 0.00 0.00 16 998.4
20260504194546 88 243 0.9 7.8 0.00 0.00 0.00 16 998.4
20260504193041 88 165 0.0 0.9 0.00 0.00 0.00 16 998.7
20260504191541 88 15 0.0 0.9 0.00 0.00 0.00 16 999.0
20260504190039 87 352 0.0 0.9 0.00 0.00 0.00 16 999.2
20260504184536 87 49 0.0 1.7 0.00 0.00 0.00 16 999.3
20260504183033 87 296 0.0 0.0 0.00 0.00 0.00 17 999.7
20260504181529 87 57 0.0 0.9 0.00 0.00 0.00 20 999.9
20260504180026 86 137 0.0 0.0 0.00 0.00 0.00 20 1000.0
20260504174523 86 113 0.0 0.0 0.00 0.00 0.00 20 1000.3
20260504173019 84 311 0.0 0.0 0.00 0.00 0.00 21 1000.5
20260504171515 83 316 0.0 1.7 0.00 0.00 0.00 25 1000.7
20260504160105 75 237 0.0 0.0 0.00 0.00 0.00 38 1001.0
20260504081555 57 226 0.9 4.3 0.00 0.00 0.00 52 1002.5